This demonstration page uses our WeatherBlox Daily Observations layout. Learn more.

Left ArrowRight Arrow

Hourly Observations for April 29, 2018

Temp ( °F °C ) Dew Point ( °F °C ) Humidity (%) Winds ( mph kmh ) Pressure ( in mb ) Visibility ( mi km ) Precip ( " mm )
12:51 am 00:51 Clear 71 21.7 27 -2.8 19 19 NNW 9 15 29.71 1006 10 16 0.00 0.00
1:51 am 01:51 Clear 69 20.6 24 -4.4 18 18 NW 12 19 29.72 1006 10 16 0.00 0.00
2:51 am 02:51 Clear 67 19.4 24 -4.4 20 20 N 9 15 29.72 1006 10 16 0.00 0.00
3:51 am 03:51 Clear 62 16.7 24 -4.4 23 23 S 6 9 29.74 1007 10 16 0.00 0.00
4:51 am 04:51 Clear 56 13.3 23 -5 28 28 SE 3 6 29.77 1008 10 16 0.00 0.00
5:51 am 05:51 Sunny 56 13.3 24 -4.4 29 29 ENE 6 9 29.80 1009 10 16 0.00 0.00
6:51 am 06:51 Sunny 67 19.4 26 -3.3 21 21 Calm 29.79 1009 10 16 0.00 0.00
7:51 am 07:51 Sunny 73 22.8 25 -3.9 17 17 E 3 6 29.80 1009 10 16 0.00 0.00
8:51 am 08:51 Sunny 77 25 24 -4.4 14 14 SE 6 9 29.80 1009 10 16 0.00 0.00
9:51 am 09:51 Sunny 80 26.7 20 -6.7 10 10 ESE 5 7 29.78 1009 10 16 0.00 0.00
10:51 am 10:51 Sunny 84 28.9 11 -11.7 6 6 S 9 15 29.76 1008 10 16 0.00 0.00
11:51 am 11:51 Sunny 87 30.6 11 -11.7 6 6 SW 9 15 29.73 1007 10 16 0.00 0.00
12:51 pm 12:51 Sunny 89 31.7 9 -12.8 5 5 NNW 12 19 29.70 1006 10 16 0.00 0.00
1:51 pm 13:51 Sunny 89 31.7 7 -13.9 4 4 VRB 3 6 29.68 1005 10 16 0.00 0.00
2:51 pm 14:51 Sunny 91 32.8 7 -13.9 4 4 VRB 3 6 29.64 1004 10 16 0.00 0.00
3:51 pm 15:51 Sunny 90 32.2 7 -13.9 4 4 W 17 28 29.63 1003 10 16 0.00 0.00
4:51 pm 16:51 Sunny 90 32.2 9 -12.8 5 5 W 15 24 29.63 1003 10 16 0.00 0.00
5:51 pm 17:51 Sunny 87 30.6 11 -11.7 6 6 W 20 31 29.63 1004 10 16 0.00 0.00
6:51 pm 18:51 Sunny 84 28.9 17 -8.3 8 8 W 12 19 29.62 1003 10 16 0.00 0.00
7:51 pm 19:51 Clear 80 26.7 16 -8.9 9 9 W 13 20 29.63 1003 10 16 0.00 0.00
8:51 pm 20:51 Clear 78 25.6 15 -9.4 9 9 WNW 15 24 29.65 1004 10 16 0.00 0.00
9:51 pm 21:51 Clear 73 22.8 12 -11.1 9 9 NW 8 13 29.68 1005 10 16 0.00 0.00
10:51 pm 22:51 Clear 72 22.2 20 -6.7 14 14 NW 10 17 29.69 1006 10 16 0.00 0.00
11:51 pm 23:51 Clear 70 21.1 18 -7.8 14 14 NNW 7 11 29.71 1006 10 16 0.00 0.00

Powered by AerisWeather